Location: Kosice
(48.7167°N, 21.2500°E)
Time: 18:21:55
(UTC+01:00)

ISS - Visible Passes

Search period start: 30 November 2023 00:00
Search period end: 10 December 2023 00:00
Orbit: 416 x 417 km, 51.6° (Epoch: 30 November)

Date Brightness Start Highest point End Pass type
(mag) Time Alt. Az. Time Alt. Az. Time Alt. Az.
30 Nov -3.9 17:30:43 10° WNW 17:34:05 86° NNE 17:34:45 55° ESE visible
01 Dec -3.8 16:42:19 10° WNW 16:45:40 67° NNE 16:48:34 13° E visible
01 Dec -1.8 18:19:13 10° W 18:21:29 29° WSW 18:21:29 29° WSW visible
02 Dec -3.0 17:30:38 10° WNW 17:33:54 50° SSW 17:35:23 27° SSE visible
03 Dec -3.6 16:42:05 10° WNW 16:45:26 73° SSW 16:48:46 10° ESE visible
03 Dec -1.1 18:19:37 10° W 18:21:43 16° SW 18:22:23 15° SSW visible
04 Dec -1.5 17:30:34 10° W 17:33:20 24° SW 17:36:04 10° SSE visible
05 Dec -2.1 16:41:43 10° W 16:44:50 35° SSW 16:47:56 10° SE visible
06 Dec -0.3 17:31:30 10° WSW 17:32:20 11° SW 17:33:11 10° SSW visible
07 Dec -0.7 16:41:35 10° W 16:43:50 17° SW 16:46:05 10° S visible
